Location: Wawayanda State Park
(41.1833°N, 74.4333°W)
Time: 07:43:41
(UTC-04:00)

Daily predictions for brighter satellites

Satellite Brightness Start Highest point End
(mag) Time Altitude Azimuth Time Altitude Azimuth Time Altitude Azimuth
FREGAT/IRIS 4.5 20:03:09 10° SSW 20:06:04 36° W 20:09:01 10° NNW
Resurs 01 Rocket 2.0 20:02:01 10° S 20:06:26 71° WSW 20:10:53 10° NNW
NOSS 7 (E) 4.3 20:05:26 10° SSW 20:08:54 82° ESE 20:12:15 10° NE
Cosmos 1544 Rocket 3.5 20:04:42 10° S 20:09:04 80° E 20:13:31 10° N
ALOS 2.4 20:06:03 10° SSE 20:10:37 58° ENE 20:15:13 10° N
Cosmos 2208 Rocket 4.0 20:06:36 10° SSW 20:11:54 75° ESE 20:17:18 10° NNE
Cosmos 2369 3.7 20:07:31 10° S 20:13:06 62° ESE 20:18:44 10° NNE
Spot 2 Rocket 4.1 20:08:20 10° S 20:13:23 62° WSW 20:18:26 10° NNW
Cosmos 1980 Rocket 3.7 20:12:04 10° SE 20:15:13 15° E 20:18:22 10° ENE
Cosmos 1975 3.6 20:12:35 10° SSE 20:16:14 32° E 20:19:53 10° NNE
H-2A R/B 3.0 20:13:14 10° SSE 20:16:59 51° ENE 20:20:50 10° N
NOSS 7 (H) 4.4 20:15:00 10° SSW 20:18:16 56° ESE 20:21:37 10° NE
Helios 1B rocket 3.6 20:15:09 10° N 20:19:08 48° WNW 20:23:04 10° SW
CZ-4B DEB 2.9 20:18:05 10° S 20:21:22 81° W 20:24:40 10° NNW
Lacrosse 5 rocket 1.1 20:19:00 10° NW 20:22:44 68° NE 20:25:57 13° SE
Envisat 4.3 20:20:13 10° ESE 20:24:02 23° ENE 20:27:58 10° NNE
USA 186 1.8 20:21:49 10° SSE 20:24:52 50° ENE 20:27:42 10° N
Okean 2 3.7 20:21:17 10° NNW 20:25:26 71° W 20:29:34 10° S
Cosmos 1570 Rocket 4.3 20:21:08 10° SSW 20:26:26 75° WNW 20:31:43 10° NNE
Iridium 4 Rocket 3.9 20:21:58 10° NNE 20:26:41 38° E 20:30:58 10° SSE
OTV 4 2.0 20:29:37 10° WSW 20:32:09 25° SSW 20:34:01 14° SSE
Meteor 1-12 Rocket 4.3 20:30:21 10° S 20:35:59 66° E 20:41:48 10° NNE
FENGYUN 3A 3.7 20:31:11 10° SSE 20:36:32 84° WSW 20:41:55 10° NNW
CZ-2D R/B 3.4 20:33:34 10° S 20:37:25 79° WSW 20:41:20 10° NNW
Cosmos 1656 3.7 20:34:29 10° S 20:39:59 58° ESE 20:45:26 10° NNE
Cosmos 2227 Rocket 2.5 20:38:11 10° NNW 20:43:49 71° WSW 20:49:25 10° SSE
Cosmos 2150 Rocket 4.3 20:40:06 10° N 20:45:05 47° ENE 20:48:42 18° SE
Tiangong 1 1.3 20:42:31 10° WNW 20:45:36 64° N 20:47:24 22° E
Cosmos 1605 Rocket 4.1 20:40:57 10° S 20:47:18 85° W 20:53:36 10° N
Cosmos 1500 3.3 20:46:53 10° S 20:50:31 49° E 20:54:11 10° NNE
ERS-1 Rocket 3.2 20:48:08 15° SE 20:52:04 52° ENE 20:56:57 10° N
Cosmos 1939 Rocket 3.5 20:49:57 21° SE 20:52:10 39° ENE 20:56:03 10° N
Lacrosse 5 2.3 20:49:00 10° NW 20:53:56 49° NE 20:56:52 23° ESE
Cosmos 2100 Rocket 4.2 20:50:04 10° SSE 20:56:04 49° E 21:02:02 10° NNE
Cosmos 1461 4.1 20:52:37 10° NW 20:56:21 36° WSW 20:59:57 10° S
DELTA 2 R/B (1) 3.8 20:52:59 10° W 20:58:27 58° SSW 21:01:40 24° SE
Cosmos 2082 4.3 20:53:21 10° NNW 20:58:51 57° WSW 21:04:19 10° S
Cosmos 2297 Rocket 2.4 20:53:28 10° NNW 20:59:07 74° WSW 21:04:20 12° SSE
Cosmos 1340 3.8 20:58:18 10° NNE 21:01:33 26° ENE 21:01:54 26° E
SPOT 5 3.8 21:00:31 24° ESE 21:02:24 31° ENE 21:06:38 10° N
Cosmos 2061 Rocket 4.2 20:56:59 10° SSE 21:03:02 50° E 21:09:03 10° NNE
YAOGAN 11 4.1 21:00:22 18° SSE 21:03:45 76° ENE 21:08:14 10° N
Cosmos 1763 Rocket 4.1 21:01:52 22° SE 21:04:01 31° E 21:08:29 10° NE
YAOGAN 6 4.3 21:04:21 19° ENE 21:04:21 19° ENE 21:06:58 10° NNE
Cosmos 1898 Rocket 3.5 20:59:01 10° NNW 21:04:20 75° ENE 21:07:49 22° SSE
H-2A R/B 2.7 21:03:38 29° E 21:04:44 33° ENE 21:08:28 10° N
Cosmos 1626 Rocket 4.1 21:04:06 10° NNW 21:08:27 60° W 21:12:43 10° S
Cosmos 1515 4.0 21:10:12 10° NNW 21:14:01 67° W 21:16:39 19° S
RESURS DK-1 2.3 21:15:16 10° NNW 21:19:25 66° ENE 21:20:28 46° SE
Cosmos 468 Rocket 3.9 21:14:32 10° SSW 21:19:40 86° WNW 21:24:49 10° NNE
Cosmos 1758 Rocket 4.2 21:16:07 10° N 21:20:06 34° ENE 21:20:18 34° E
USA 215 4.5 21:15:54 14° ENE 21:20:35 31° NNE 21:26:10 10° NW
deb Chang Zheng 4 3.7 21:17:38 10° NNE 21:22:00 52° E 21:23:15 39° SSE
Cosmos 2084 3.5 21:18:23 10° NW 21:22:26 68° WSW 21:23:56 38° SSE
CZ-4 DEB 3.5 21:22:56 31° SSW 21:24:04 49° W 21:27:09 10° NNW
Cosmos 841 Rocket 3.7 21:24:57 36° SE 21:26:26 45° ESE 21:31:23 10° NNE
Cosmos 1743 2.6 21:26:39 42° S 21:27:53 79° E 21:31:49 10° N
Cosmos 1459 Rocket 3.8 21:22:06 10° S 21:28:09 82° E 21:34:16 10° N
Cosmos 1725 Rocket 4.4 21:28:16 35° ESE 21:29:42 40° E 21:35:26 10° NNE
Cosmos 1814 Rocket 4.0 21:24:46 10° SSW 21:30:07 84° WNW 21:35:28 10° NNE
Terra 3.9 21:32:33 13° NE 21:32:33 13° NE 21:34:24 10° NNE
Cosmos 1697 Rocket 3.0 21:29:51 10° SSW 21:35:28 68° WNW 21:41:07 10° NNE
OAO 2 Rocket 3.8 21:33:25 10° WSW 21:38:08 42° S 21:38:28 41° S
SL-16 R/B 3.6 21:46:17 23° ENE 21:46:17 23° ENE 21:48:49 10° NE
Cosmos 2058 Rocket 3.4 21:45:01 50° ENE 21:45:01 50° ENE 21:48:54 10° NNE
NOAA 11 4.5 21:46:06 44° E 21:46:44 47° ENE 21:51:58 10° N
Cosmos 1606 Rocket 3.6 21:50:21 55° SSW 21:51:17 79° W 21:55:44 10° N
ASTEX 1 3.3 21:46:47 10° N 21:51:50 79° E 21:52:42 60° SSE
ARGOS 3.3 21:53:32 51° E 21:53:56 52° ENE 21:59:10 10° N
Cosmos 1842 3.9 21:52:13 10° N 21:55:11 47° NNE 21:55:11 47° NNE
Cosmos 1980 Rocket 2.4 21:52:50 10° SSW 21:58:29 73° WNW 22:04:13 10° NNE
Lacrosse 5 rocket 3.7 22:00:11 10° W 22:01:24 11° WSW 22:01:42 11° SW
Cosmos 1802 Rocket 4.4 21:55:57 10° SSW 22:02:15 65° W 22:08:40 10° N
Envisat 3.9 22:00:26 27° SSW 22:02:46 43° W 22:07:36 10° NNW
SL-08 R/B 4.4 22:00:46 36° S 22:03:33 89° W 22:09:46 10° N
MetOp-B 4.2 22:07:39 58° SSW 22:08:38 73° WSW 22:14:01 10° NNW
Cosmos 1726 Rocket 4.2 22:14:23 49° W 22:14:48 51° W 22:19:06 10° N
Cosmos 1666 4.1 22:16:27 35° NNW 22:16:27 35° NNW 22:18:50 10° N
Cosmos 2016 Rocket 4.4 22:11:10 22° SSW 22:15:11 60° W 22:21:19 10° N
H-2A R/B 2.9 22:17:51 37° NE 22:17:51 37° NE 22:21:27 10° N
Meteor 1-15 Rocket 4.2 22:19:19 69° SSW 22:20:07 88° W 22:26:02 10° N
Tiangong 1 4.3 22:19:04 10° W 22:19:22 12° W 22:19:22 12° W
CZ-4B R/B 4.0 22:17:45 10° NNE 22:21:04 45° NNE 22:21:04 45° NNE
Cosmos 1375 Rocket 4.5 22:25:11 69° E 22:25:11 69° E 22:31:21 10° NE
Cosmos 2263 Rocket 2.9 22:20:50 10° N 22:25:29 40° NE 22:25:29 40° NE
Cosmos 2322 Rocket 2.6 22:32:37 53° NNE 22:32:37 53° NNE 22:36:53 10° NNE
SL-08 RB Rocket 4.4 22:33:41 52° NNW 22:33:41 52° NNW 22:37:15 10° NNW
Cosmos 2098 Rocket 4.5 22:29:39 31° SSW 22:32:54 59° W 22:38:40 10° N
SPOT 1/Viking Rocket 3.9 22:36:08 60° W 22:36:08 60° W 22:41:06 10° NNW
Lacrosse 5 3.3 22:32:20 10° WNW 22:36:04 28° WSW 22:36:04 28° WSW
SPOT 5 4.4 22:39:46 29° WSW 22:40:24 30° W 22:44:39 10° NW
H-2A R/B 4.2 22:40:46 19° W 22:40:50 19° W 22:43:48 10° NW
Cosmos 1125 Rocket 4.3 22:47:30 10° NNW 22:51:36 47° WNW 22:51:36 47° WNW
USA 215 3.2 23:03:14 77° NNE 23:03:14 77° NNE 23:09:33 10° NW
Terra 3.4 23:11:26 33° NNW 23:11:26 33° NNW 23:14:04 10° NNW
SL-16 R/B 3.4 23:28:05 38° NW 23:28:05 38° NW 23:33:09 10° N
Cosmos 1844 Rocket 4.3 23:33:24 10° N 23:36:28 27° NNE 23:36:28 27° NNE
Cosmos 2360 Rocket 3.8 23:45:50 29° NNE 23:45:50 29° NNE 23:48:31 10° NNE
